Wind_Speed
10 10 10 9 9 11 13 15 16 17 18 16 12 9 13 15 18 17 11 15 11 9 7 8 3 4 7 4 6 5 7 9 11 10 10 9 10 9 13 10 7 7 2 8 4
11 11 11 10 9 10 13 14 16 17 19 17 13 9 11 16 19 18 16 19 12 10 8 2 3 2 3 4 8 9 9 9 8 9 9 9 8 7 6 11 10 6 7 2 4
11 12 12 11 10 10 12 14 16 17 20 18 15 10 10 17 17 11 19 20 11 11 8 7 2 3 4 2 4 6 9 7 7 8 8 7 7 9 11 12 10 4 8 3 8
11 12 12 12 11 10 11 13 16 17 20 19 15 10 11 18 8 19 20 21 12 10 7 1 1 1 3 2 1 5 7 5 5 6 6 6 6 6 6 5 7 6 10 7 7
10 12 13 13 12 11 11 12 15 17 20 20 16 11 12 21 3 14 21 20 12 12 3 3 2 4 4 0 2 3 3 4 4 3 3 3 5 3 4 3 4 9 11 10 9
9 12 13 13 12 12 11 12 14 17 21 20 16 12 15 11 14 13 23 20 12 6 4 1 3 2 3 1 3 2 2 2 2 2 2 3 3 6 3 2 3 5 7 8 12
7 11 13 13 13 12 11 12 14 16 21 19 15 12 14 9 13 14 23 15 11 8 5 4 2 1 3 2 2 1 4 0 1 0 1 2 4 2 2 3 4 6 7 8 12
6 9 12 13 13 13 12 12 14 16 21 19 14 10 10 15 11 20 22 14 16 11 7 6 3 1 2 4 2 3 1 1 3 1 3 4 2 4 2 1 2 6 8 7 12
5 8 10 12 12 12 12 12 14 17 21 18 13 9 4 15 16 15 13 12 14 11 10 11 2 3 6 6 13 1 7 4 0 3 4 3 7 3 3 4 3 6 9 11 11
4 6 9 11 12 12 12 13 14 18 20 17 12 9 11 6 9 15 13 15 13 11 10 8 3 9 4 10 11 6 7 4 4 4 7 9 8 7 6 6 6 8 11 13 13
3 5 7 9 11 12 13 13 11 14 21 12 7 5 7 13 16 15 15 17 14 13 12 9 10 11 3 1 3 3 7 10 7 8 10 9 9 8 8 8 8 7 10 13 14
4 5 7 9 11 13 16 21 13 16 15 17 11 17 10 9 8 12 16 18 18 17 13 12 10 5 4 3 5 7 7 7 6 6 7 7 9 8 4 7 7 8 11 15 15
4 5 7 9 11 12 16 16 19 18 8 15 10 11 6 8 8 13 15 18 17 18 17 16 8 3 4 8 7 12 5 8 10 10 9 6 7 5 3 3 1 5 10 14 15
5 5 7 10 12 14 15 15 15 20 8 11 12 10 11 10 8 13 17 15 14 18 15 17 16 8 10 10 8 14 5 9 10 12 6 3 3 8 10 8 8 5 6 9 12
6 6 9 12 16 17 16 16 20 19 7 11 14 12 11 10 10 15 17 16 14 13 14 16 13 13 12 11 6 10 9 8 9 10 12 6 7 6 13 10 5 3 5 5 7
7 8 13 16 15 16 17 19 21 6 5 13 14 14 15 9 10 14 16 14 10 14 13 15 10 12 15 11 9 11 12 10 7 10 12 2 7 8 5 7 2 2 3 5 6
7 10 16 18 15 17 18 19 7 12 13 14 16 17 14 12 11 15 16 18 12 11 15 15 18 13 13 14 10 9 15 15 12 9 7 4 8 9 5 5 5 4 3 3 3
7 12 15 16 14 17 20 7 12 5 12 15 16 16 16 13 11 14 14 15 16 12 14 12 19 15 16 15 17 16 16 12 5 6 10 3 4 2 2 2 3 4 3 2 3
6 12 14 16 15 16 16 12 2 12 9 15 17 16 15 15 9 13 16 14 14 13 13 8 6 6 9 10 12 9 10 9 12 7 8 1 4 5 4 0 3 4 2 2 3
6 10 14 15 16 18 9 12 6 4 9 13 15 14 15 17 12 15 14 13 13 13 12 5 5 6 4 8 13 13 7 8 8 2 8 8 6 12 5 1 3 6 3 2 2
8 9 13 17 17 17 13 6 7 7 9 12 11 12 11 16 16 14 14 6 13 12 14 9 11 7 7 12 12 12 14 10 11 11 9 9 9 3 2 3 5 6 3 5 6
11 6 13 18 15 12 13 10 11 7 9 10 8 7 10 13 15 13 7 6 12 8 14 12 11 16 15 8 11 12 13 11 14 8 15 12 9 3 3 4 6 6 8 10 5
9 7 13 20 12 14 13 10 10 8 9 11 10 9 8 11 12 11 11 7 12 10 9 8 13 19 16 16 12 18 17 16 18 17 17 13 8 5 3 4 8 8 10 11 16
9 3 8 18 13 11 16 15 13 12 10 12 10 11 11 9 8 11 9 4 10 10 16 14 17 21 21 6 12 10 12 13 16 21 21 21 23 8 7 10 7 11 13 11 14
12 3 8 10 15 15 11 16 17 12 11 11 10 13 14 11 10 10 9 4 4 7 5 7 16 19 19 12 12 17 19 18 18 20 22 25 24 22 19 12 15 14 9 11 13
15 8 8 5 10 15 15 16 17 16 13 15 12 14 12 9 10 9 7 7 8 6 7 11 18 17 20 20 22 22 21 22 23 24 25 23 22 18 9 7 6 7 8 7 10
23 17 9 10 9 12 15 16 19 14 14 8 15 14 12 8 6 4 6 8 10 11 14 15 18 19 24 19 23 24 24 20 19 17 17 20 14 7 7 9 8 10 14 15 14
Wind_Direction
224 216 214 213 209 209 209 210 210 206 202 201 201 198 192 189 185 184 173 214 175 160 148 123 2 99 62 50 46 37 68 75 75 82 80 86 67 68 63 45 36 65 61 162 205
226 221 214 213 211 210 209 211 211 206 201 201 202 199 197 187 187 187 223 186 171 164 164 43 94 104 100 69 52 66 71 83 81 80 82 89 69 47 104 54 40 42 116 223 182
228 222 218 212 212 210 209 209 210 207 200 199 201 198 198 182 185 218 212 189 175 171 168 140 86 81 151 76 50 54 70 74 77 79 88 75 64 42 32 52 37 27 32 96 162
229 224 220 214 212 212 211 209 208 204 197 196 197 192 189 168 156 226 208 193 174 177 164 130 173 192 169 93 87 95 52 68 84 85 75 55 65 52 52 50 56 65 54 88 147
228 223 221 217 213 212 212 209 206 201 195 194 193 188 180 169 228 236 199 188 166 179 183 153 128 168 275 241 95 16 69 39 59 73 72 58 31 18 33 37 93 18 50 87 145
228 222 220 219 215 213 210 208 203 196 191 191 190 187 179 176 225 214 196 183 172 174 199 168 186 242 121 186 4 86 335 27 17 47 100 351 10 30 64 102 161 6 34 141 165
229 221 218 218 216 213 209 206 201 193 188 188 189 192 188 186 222 205 196 187 195 181 183 223 184 213 190 182 216 295 303 243 35 360 232 266 243 25 53 110 168 165 153 174 176
229 219 215 214 214 212 207 204 198 189 184 185 187 191 161 224 210 201 196 202 189 195 195 219 249 187 229 218 206 264 106 267 49 320 260 294 334 101 10 151 220 191 191 187 188
228 216 212 210 210 209 204 199 193 185 181 183 184 189 218 251 222 193 205 198 207 211 216 220 260 224 202 239 211 16 165 18 101 318 305 290 304 322 297 262 229 217 218 201 195
226 213 209 205 205 203 199 191 186 181 180 179 184 167 215 212 197 201 202 187 193 209 222 220 218 218 206 249 22 52 341 26 309 314 307 291 282 278 282 240 262 229 215 211 205
218 207 203 199 197 193 188 173 172 186 181 162 222 153 167 197 213 208 203 207 197 201 195 206 226 225 142 325 338 305 290 309 301 303 302 285 288 276 273 248 249 238 219 220 211
201 194 191 190 189 187 179 155 196 170 195 194 193 203 213 194 206 199 197 197 201 203 199 201 229 265 215 263 282 294 287 301 324 318 298 283 287 289 259 217 230 227 218 206 207
191 186 185 184 182 178 177 180 170 166 144 214 217 199 205 191 177 195 187 185 201 207 207 214 202 191 249 250 278 283 280 336 319 301 261 278 242 166 111 90 224 172 194 196 207
180 174 173 168 164 161 164 164 160 157 177 196 204 202 198 160 180 198 172 180 193 204 212 220 235 264 246 247 269 295 351 318 309 300 355 227 225 151 137 111 97 111 156 195 212
176 167 162 157 156 145 165 158 150 157 214 171 171 192 180 148 181 175 174 191 194 200 213 226 230 249 237 245 276 273 315 300 302 278 267 212 107 246 159 117 99 126 158 200 232
178 164 157 148 152 153 154 153 157 216 159 164 187 175 170 174 169 179 188 180 198 217 231 230 252 237 233 249 258 272 282 269 253 256 263 145 252 250 34 94 52 255 228 229 227
180 165 158 153 151 154 153 149 198 255 151 166 169 171 165 169 179 175 182 199 202 204 225 233 234 244 238 249 253 262 261 255 232 215 147 109 302 113 92 64 48 28 252 245 175
180 172 169 167 156 154 155 167 250 124 176 164 169 173 181 177 185 184 192 204 212 238 271 217 209 221 227 243 248 246 273 280 253 273 93 174 109 327 20 22 13 14 7 77 145
180 175 170 176 171 163 160 209 63 168 155 160 166 179 189 190 190 194 206 213 214 221 254 201 177 178 218 229 228 227 253 322 309 221 243 87 150 237 148 73 347 337 351 78 117
176 168 181 170 170 168 184 238 188 135 167 176 179 190 191 195 201 199 195 212 217 220 214 251 193 197 211 204 219 237 297 268 298 347 287 159 298 101 133 55 329 303 280 300 271
153 141 194 176 170 174 196 201 193 206 175 182 218 197 213 195 204 197 196 206 208 212 210 229 244 177 209 220 213 208 235 251 277 308 316 289 108 214 15 304 288 284 283 271 285
142 173 207 181 179 189 208 223 208 189 201 194 193 221 218 190 200 201 205 212 193 198 211 222 259 241 233 199 232 256 282 276 269 255 261 309 307 108 107 307 295 278 287 271 266
108 230 201 181 188 208 207 215 190 194 195 202 204 197 186 189 201 214 204 210 204 201 227 229 239 253 241 236 240 244 248 257 269 285 281 274 271 163 315 299 265 259 263 287 284
146 165 190 195 202 215 214 207 208 203 192 192 203 198 191 192 206 202 204 223 216 214 232 232 254 269 291 264 259 249 235 252 269 281 293 293 304 289 311 301 286 276 273 262 277
171 181 201 208 214 206 212 208 204 206 199 197 205 204 205 203 206 209 193 223 209 240 236 236 266 264 280 275 265 272 277 275 271 276 277 288 294 290 294 271 273 295 292 260 258
171 194 213 180 199 207 214 204 201 205 199 207 208 207 205 233 215 213 214 238 239 241 248 264 269 276 276 274 277 272 273 273 273 277 279 283 283 286 268 273 287 286 286 270 258
208 203 200 219 201 198 212 204 205 210 214 209 207 203 205 182 176 218 247 257 261 253 260 266 270 277 274 276 283 277 270 274 278 276 278 286 283 291 284 279 276 285 283 276 278
Height
3148 3149 3149 3150 3150 3152 3153 3155 3157 3159 3161 3163 3165 3166 3168 3170 3172 3175 3178 3178 3180 3181 3182 3183 3187 3186 3185 3187 3186 3183 3183 3183 3184 3185 3187 3187 3186 3185 3182 3183 3181 3179 3180 3177 3176
3146 3147 3148 3149 3150 3151 3152 3153 3155 3157 3160 3162 3164 3166 3167 3170 3172 3174 3176 3177 3180 3181 3182 3185 3187 3187 3188 3187 3187 3185 3187 3187 3187 3186 3187 3188 3187 3185 3182 3182 3182 3179 3177 3176 3176
3144 3145 3147 3148 3149 3150 3151 3152 3154 3156 3159 3162 3164 3166 3167 3170 3174 3178 3175 3178 3180 3181 3183 3185 3187 3187 3188 3187 3187 3187 3188 3188 3189 3188 3188 3188 3186 3185 3182 3184 3184 3180 3176 3176 3176
3142 3143 3145 3146 3147 3149 3150 3151 3153 3155 3158 3161 3164 3166 3167 3171 3179 3171 3175 3178 3181 3182 3184 3187 3188 3188 3187 3187 3188 3188 3189 3189 3189 3189 3189 3188 3188 3187 3187 3186 3185 3182 3178 3177 3177
3140 3141 3143 3144 3146 3147 3149 3150 3151 3154 3157 3161 3164 3166 3168 3172 3174 3170 3174 3178 3181 3183 3187 3188 3188 3188 3187 3188 3188 3188 3189 3189 3189 3189 3189 3189 3188 3188 3187 3186 3186 3182 3180 3178 3179
3138 3139 3141 3143 3144 3146 3147 3148 3150 3153 3156 3160 3163 3165 3167 3173 3171 3171 3174 3179 3182 3185 3188 3189 3189 3188 3188 3188 3188 3189 3189 3188 3188 3188 3188 3188 3188 3187 3187 3187 3185 3183 3182 3181 3181
3136 3137 3139 3141 3142 3144 3146 3147 3149 3152 3156 3160 3163 3164 3166 3173 3171 3172 3175 3179 3181 3184 3188 3188 3188 3189 3189 3188 3189 3188 3187 3187 3187 3188 3188 3187 3186 3186 3186 3186 3186 3184 3184 3183 3183
3135 3136 3137 3139 3141 3143 3144 3146 3149 3151 3155 3159 3163 3164 3167 3170 3169 3171 3175 3180 3182 3184 3186 3187 3188 3188 3188 3188 3188 3187 3186 3184 3186 3188 3187 3187 3184 3185 3185 3186 3186 3186 3185 3183 3183
3133 3134 3135 3137 3139 3141 3143 3146 3149 3151 3155 3160 3163 3165 3170 3166 3167 3172 3177 3181 3184 3185 3186 3186 3188 3188 3189 3184 3183 3183 3182 3185 3185 3186 3186 3186 3184 3184 3185 3185 3185 3185 3185 3184 3183
3132 3133 3134 3136 3138 3140 3143 3145 3149 3152 3156 3160 3164 3167 3166 3169 3170 3172 3175 3178 3183 3186 3188 3188 3188 3187 3184 3181 3180 3181 3180 3183 3185 3185 3185 3184 3183 3182 3182 3182 3183 3184 3184 3183 3183
3131 3132 3133 3135 3137 3139 3142 3146 3153 3155 3155 3162 3164 3164 3166 3168 3167 3168 3174 3177 3183 3186 3186 3188 3187 3182 3181 3184 3186 3187 3185 3183 3183 3183 3184 3182 3180 3180 3180 3180 3181 3181 3182 3182 3184
3131 3131 3132 3134 3136 3138 3141 3144 3150 3152 3158 3157 3160 3162 3162 3164 3168 3169 3174 3178 3181 3183 3185 3187 3185 3182 3184 3187 3187 3185 3183 3181 3181 3182 3181 3179 3177 3177 3177 3178 3178 3179 3180 3181 3183
3130 3131 3132 3133 3136 3138 3141 3144 3147 3152 3158 3158 3159 3161 3164 3165 3168 3170 3172 3177 3180 3182 3183 3183 3183 3182 3186 3186 3185 3181 3180 3182 3183 3179 3176 3175 3175 3175 3176 3177 3176 3176 3178 3180 3181
3130 3130 3132 3134 3138 3139 3142 3145 3149 3153 3157 3159 3159 3160 3161 3164 3168 3170 3172 3178 3179 3180 3181 3183 3181 3183 3185 3185 3184 3181 3181 3182 3181 3177 3171 3174 3183 3174 3175 3177 3177 3178 3179 3180 3180
3130 3131 3132 3135 3136 3140 3144 3146 3149 3153 3149 3157 3159 3158 3162 3165 3166 3169 3172 3176 3178 3179 3181 3180 3181 3183 3184 3183 3183 3183 3182 3182 3180 3176 3171 3169 3171 3176 3172 3174 3177 3178 3179 3180 3179
3130 3131 3133 3135 3138 3141 3144 3147 3151 3156 3147 3154 3155 3157 3161 3164 3166 3167 3170 3174 3176 3178 3179 3178 3179 3181 3181 3181 3182 3183 3181 3178 3175 3173 3167 3165 3167 3170 3162 3172 3176 3178 3179 3178 3179
3129 3131 3134 3136 3140 3142 3145 3149 3155 3147 3147 3153 3154 3157 3161 3163 3166 3167 3170 3172 3174 3177 3175 3176 3177 3178 3180 3180 3180 3180 3175 3170 3168 3162 3169 3165 3167 3171 3172 3174 3176 3178 3178 3177 3178
3129 3132 3134 3137 3140 3143 3146 3152 3149 3143 3146 3149 3154 3158 3160 3163 3165 3167 3169 3171 3172 3172 3168 3169 3169 3173 3175 3178 3176 3174 3171 3167 3162 3162 3167 3163 3166 3170 3174 3175 3177 3178 3178 3177 3176
3130 3132 3135 3138 3140 3143 3147 3149 3142 3145 3148 3151 3154 3157 3159 3161 3164 3166 3167 3168 3169 3171 3169 3166 3167 3171 3174 3175 3176 3171 3172 3168 3163 3160 3162 3160 3165 3168 3173 3175 3177 3178 3177 3178 3176
3129 3132 3135 3137 3140 3144 3148 3145 3146 3146 3149 3151 3153 3155 3156 3159 3162 3163 3165 3166 3167 3169 3168 3168 3167 3170 3172 3173 3174 3172 3172 3168 3166 3163 3160 3160 3162 3164 3171 3174 3176 3177 3178 3177 3172
3130 3136 3135 3137 3141 3144 3147 3147 3148 3149 3150 3152 3152 3154 3153 3156 3160 3161 3161 3164 3166 3167 3169 3169 3168 3168 3170 3171 3168 3171 3170 3169 3166 3165 3161 3160 3165 3170 3172 3173 3175 3178 3174 3176 3172
3130 3139 3134 3137 3142 3145 3146 3147 3147 3150 3150 3152 3152 3152 3153 3154 3158 3159 3160 3162 3165 3167 3169 3169 3166 3164 3162 3164 3168 3168 3167 3168 3166 3166 3166 3165 3164 3166 3168 3172 3173 3174 3174 3171 3171
3132 3133 3133 3136 3142 3144 3145 3146 3147 3149 3150 3152 3153 3153 3153 3156 3159 3159 3161 3161 3164 3167 3168 3168 3168 3163 3160 3161 3164 3166 3168 3168 3166 3164 3164 3165 3162 3164 3165 3167 3170 3171 3172 3170 3166
3132 3135 3133 3134 3137 3140 3143 3145 3147 3147 3149 3151 3152 3154 3155 3156 3158 3160 3161 3163 3163 3166 3166 3167 3166 3162 3158 3167 3168 3165 3165 3166 3167 3164 3161 3160 3161 3163 3164 3165 3165 3166 3167 3167 3163
3131 3134 3134 3134 3137 3139 3141 3143 3145 3147 3148 3150 3152 3153 3154 3155 3157 3158 3160 3162 3163 3162 3164 3166 3164 3162 3159 3160 3163 3164 3162 3162 3163 3164 3164 3163 3162 3162 3161 3159 3159 3160 3161 3161 3160
3128 3132 3133 3134 3136 3138 3139 3141 3143 3145 3147 3149 3151 3152 3153 3154 3155 3155 3159 3161 3161 3162 3164 3164 3163 3162 3160 3161 3160 3158 3160 3159 3159 3160 3159 3159 3159 3158 3156 3156 3156 3156 3157 3156 3155
3123 3127 3130 3133 3135 3137 3137 3140 3142 3144 3146 3146 3149 3151 3153 3153 3155 3157 3159 3160 3160 3161 3161 3162 3161 3160 3156 3158 3156 3154 3155 3155 3155 3155 3156 3156 3157 3154 3155 3155 3154 3152 3152 3150 3149